Regional Weather Roundup
Issued by NWS

Home | Current Version | Previous Version | Graphics & Text | Print | Product List | Glossary On
Versions: 1 2 3 4 5 6 7 8 9 10 11 12 13 14 15 16 17 18 19 20 21 22 23 24 25 26 27 28 29 30 31 32 33 34 35 36 37 38 39 40 41 42 43 44 45 46 47 48 49 50
000
ASUS45 KTFX 031710
RWRMT
MONTANA REGIONAL WEATHER ROUNDUP
NATIONAL WEATHER SERVICE GREAT FALLS MT
1000 AM MST SAT DEC 03 2016

NOTE: "FAIR" INDICATES FEW OR NO CLOUDS BELOW 12000 FEET WITH NO
SIGNIFICANT WEATHER AND/OR OBSTRUCTIONS TO VISIBILITY.

MTZ001>007-043-031800-
WEST OF THE DIVIDE

CITY           SKY/WX    TMP DP  RH WIND       PRES   REMARKS
KALISPELL      PTSUNNY   31  28  89 SW7       30.00R WCI  24
MISSOULA       CLOUDY    31  29  92 CALM      30.08R
BUTTE          CLOUDY    32  19  58 W14G20    30.00R WCI  22
MULLAN PASS    LGT SNOW  25  23  92 NW8       29.99R FOG     WCI  16
ANACONDA         N/A     32  19  59 E8        30.00R WCI  25
DEER LODGE       N/A     28  27  93 CALM      30.02R
EUREKA           N/A     37  27  65 SE5       29.98R
HAMILTON         N/A     37  28  70 CALM      30.07S
LIBBY            N/A     32  30  93 NW3       30.02R
PLAINS           N/A     33  29  86 CALM      30.07R
RONAN            N/A     35  31  86 CALM      30.08R
$$

MTZ008-052>055-031800-
SOUTHWEST MONTANA

CITY           SKY/WX    TMP DP  RH WIND       PRES   REMARKS
BOZEMAN        CLOUDY    30  23  75 W9        30.01R WCI  22
DILLON         CLOUDY    30  17  58 SW15      30.04R WCI  19
W YELLOWSTONE  CLOUDY    18  14  86 SW10G22   30.09S FOG     WCI   6
ENNIS          CLOUDY    28  18  64 S16       30.09S WCI  17
THREE FORKS      N/A     35 -44   2 CALM      29.99R
TWIN BRIDGES     N/A     32  17  54 SE6       30.03R WCI  26
$$

MTZ009-010-012-014-046-048-049-054-031800-
EAST SLOPES AND CENTRAL MONTANA

CITY           SKY/WX    TMP DP  RH WIND       PRES   REMARKS
CUT BANK       SUNNY     36  22  56 W28       29.83R WCI  23
GREAT FALLS    MOSUNNY   36  24  62 SW15G24   29.86R WCI  27
MALMSTROM AFB  MOSUNNY   36  26  68 SW21G29   29.87R WCI  24
HELENA         CLOUDY    39  22  50 W12G23    29.97R WCI  32
AUGUSTA          N/A     37  22  55 W14G21    29.87R WCI  28
BOWMANS CRNR     N/A     36  21  55 SW21G26   29.87R WCI  25
CHOTEAU          N/A     39  19  45 W23G38    29.86R WCI  29
CONRAD           N/A     39  25  58 W24       29.86R WCI  28
FAIRFIELD        N/A     39  20  47 W22G31    29.84R WCI  28
POWER            N/A     35  22  59 SW16      29.84R WCI  25
RAYNESFORD       N/A     37  22  55 W26G38    29.85R WCI  25
$$

MTZ011-013-016-021-045-047-050-051-031800-
NORTH CENTRAL MONTANA

CITY           SKY/WX    TMP DP  RH WIND       PRES   REMARKS
HAVRE          CLOUDY    33  24  69 SW18G28   29.79R WCI  22
LEWISTOWN      SUNNY     36  23  59 SW15      29.84R WCI  27
N BAR RANCH      N/A     37  18  44 W17G28    29.84R WCI  28
CHINOOK          N/A     39  23  52 SW18G25   29.78R WCI  30
DENTON           N/A     38  22  52 W40G49    29.80R WCI  24
GEYSER         PTSUNNY   38  22  53 W21G29    29.84R WCI  27
JUDITH GAP       N/A     35  21  55 W30G45    29.84S WCI  22
ROY            PTSUNNY   42  22  45 MISG      29.80R
STANFORD         N/A     37  21  52 W26G41    29.83R WCI  25
WINIFRED         N/A     38  22  53 MISG      29.81R
$$

MTZ017>020-022>027-061-062-031800-
NORTHEAST MONTANA

CITY           SKY/WX    TMP DP  RH WIND       PRES   REMARKS
GLASGOW          N/A     35  26  69 W12       29.74S WCI  27
JORDAN           N/A     38  23  55 W13       29.80R WCI  30
SIDNEY         LGT SNOW  25  23  92 S13       29.83S FOG     WCI  14
WOLF POINT     CLOUDY    34  27  75 SW5       29.78F
PLENTYWOOD       N/A     27  27 100 S7        29.76S WCI  19
POPLAR           N/A     32  27  80 SW7       29.79S WCI  26
SCOBEY           N/A     29  23  78 SE2       29.72F
$$

MTZ028>42-056>058-031800-
SOUTHCENTRAL AND SOUTHEAST MONTANA

CITY           SKY/WX    TMP DP  RH WIND       PRES   REMARKS
BAKER          CLOUDY    30  21  69 SW13      29.85S WCI  20
BILLINGS       CLOUDY    36  16  44 SW15      29.91R WCI  27
LIVINGSTON     CLOUDY    34  15  46 SW28G41   29.94S WCI  21
MILES CITY     CLOUDY    29  23  78 S7        29.84S WCI  22
BIG TIMBER     SUNNY     39  16  38 W33G41    29.92R WCI  27
EKALAKA          N/A     29  20  69 SW7       29.84S WCI  22
FORSYTH          N/A     39  21  48 W9        29.85R
HARLOWTON        N/A     37  21  52 W30G37    29.87R WCI  24
LAUREL           N/A     37  12  36 SW10      29.91R WCI  30
ROUNDUP          N/A     39  17  41 SW20      29.79R WCI  29
$$

REGIONAL REPORTS...DAKOTAS

CITY           SKY/WX    TMP DP  RH WIND       PRES   REMARKS
WILLISTON      CLOUDY    25  20  81 S7        29.82F WCI  17
MINOT          SUNNY     26  22  84 S16G26    29.88S WCI  14
DICKINSON      SUNNY     19  17  92 S7        29.83S WCI  10
BEACH          PTSUNNY   28  23  80 SW10      29.86S WCI  19
CROSBY         PTSUNNY   27  23  86 S13       29.80F WCI  16
TIOGA            N/A     25  23  93 S16       29.82S WCI  12
WATFORD CITY     N/A     28  19  69 SW8       29.83S WCI  20
BISMARCK       MOSUNNY   23  22  96 SE17      29.97F WCI   9
GRAND FORKS    CLOUDY    29  22  75 S14       30.14S WCI  18
FARGO          CLOUDY    29  20  69 SE13      30.16F WCI  19
BUFFALO SD       N/A     26  21  81 SW8       29.80F WCI  18
RAPID CITY     SUNNY     32  24  72 CALM      29.89R
$$

REGIONAL REPORTS...WYOMING/IDAHO/WASHINGTON

CITY           SKY/WX    TMP DP  RH WIND       PRES   REMARKS
GILLETTE       CLOUDY    31  17  56 W10       29.91S WCI  22
SHERIDAN       CLOUDY    35  24  64 VRB3      29.92R
BUFFALO WY     MOSUNNY   36  16  44 SE3       29.91R
CODY           SUNNY     34   9  35 W26G37    29.94R WCI  21
YELLOWSTONE LA   N/A     15  10  80 VRB7      30.07R WCI   5
IDAHO FALLS    PTSUNNY   28  20  71 SW14      30.22R WCI  17
SALMON         CLOUDY    28  25  86 CALM      30.15R
BOISE          CLOUDY    37  26  64 CALM      30.28R
SPOKANE        PTSUNNY   35  31  85 SW13      30.12R WCI  26
$$

REGIONAL REPORTS...ALBERTA

CITY           SKY/WX    TMP DP  RH WIND       PRES   REMARKS
EDMONTON       PTCLDY    28  23  80 W12       29.70R WCI  18
CALGARY        MOCLDY    36  14  41 W15G25    29.76R WCI  26
LETHBRIDGE     MOSUNNY   41  21  45 W28G35    29.79R
MEDICINE HAT   MOSUNNY   34  23  64 SW10      29.75R WCI  26
WATERTON GATE    N/A     34  23  64 SW14G20     N/A  WCI  24
CARDSTON         N/A     39  19  45 W10         N/A
MILK RIVER       N/A     37  21  52 W22G30      N/A  WCI  27
$$

REGIONAL REPORTS...SASKATCHEWAN

CITY           SKY/WX    TMP DP  RH WIND       PRES   REMARKS
SWIFT CURRENT  FLURRIES  27  25  93 W18       29.64R WCI  13
REGINA         FLURRIES  25  23  93 SE12      29.68S WCI  14
SASKATOON      CLOUDY    23  21  93 N5        29.68S
VAL MARIE        N/A     34  25  69 W13         N/A  WCI  25
ASSINIBOIA       N/A     27  25  93 SW5         N/A
$$



USA.gov is the U.S. government's official web portal to all federal, state and local government web resources and services.